Tracking 22130 objects as of 21-Jan-2021
HD Live streaming from Space Station
objects crossing your sky now

STARLINK-48

Track STARLINK-48 now!
10-day predictions
STARLINK-48 is classified as:


NORAD ID: 44289
Int'l Code: 2019-029BG
Perigee: 513.8 km
Apogee: 517.2 km
Inclination: 53.0 °
Period: 94.8 minutes
Semi major axis: 6886 km
RCS: Unknown
Launch date: May 24, 2019
Source: United States (US)
Launch site: AIR FORCE EASTERN TEST RANGE (AFETR)
aabbcc
Your satellite tracking list
Your tracking list is empty




NASA's NSSDC Master Catalog

Two Line Element Set (TLE):
1 44289U 19029BG  21021.55865590  .00002071  00000-0  11233-3 0  9990
2 44289  53.0019 262.3850 0002432  87.2364 272.8908 15.19161787 91826
Source of the keplerian elements: AFSPC